Location: Glencliff
(36.1226°N, 86.7183°W)
Time: 17:09:10
(UTC+00:00)

Cosmos 1805 Rocket - Pass Details

Date: 25 August 2019
Orbit: 607 x 629 km, 82.5° (Epoch: 21 September)

Event Time Altitude Azimuth Distance (km) Brightness Sun altitude
Rises 10:31:22 0° 346° (NNW) 2,915 7.1 -8.8°
Reaches altitude 10° 10:33:38 10° 341° (NNW) 2,007 6.2 -8.4°
Maximum altitude 10:37:56 49° 267° (W) 808 3.8 -7.6°
Drops below altitude 10° 10:42:13 10° 192° (SSW) 1,998 5.9 -6.8°
Sets 10:44:29 0° 187° (S) 2,901 6.7 -6.3°
